Date String (YYYY-MM-DD hh:mm:ss) UTC,Instrument flags,absolute air pressure of the measurement (hPa),sample flow rate (lpm),inlet stack bypass flow (lpm),air temperature of the measurement (°C),ambient temperature measured by the external sensor (°C),aerosol sample conditioner tube jacket temperature (°C),OPC LED temperature (°C),internal box temperature (°C),relative humidity of the measurement (%),span deviation,mass concentration of particles derived from Lorenz-Mie calculation of OPC scattering (μg/m³),mass concentration of particles derived from Lorenz-Mie calculation of OPC scattering (μg/m³),mass concentration of particles derived from Lorenz-Mie calculation of OPC scattering (μg/m³)
DateTimeUTC,F1_M11,P_M11,Q1_M11,Q2_M11,T1_M11,T2_M11,T3_M11,T4_M11,T5_M11,U1_M11,ZSPAN_M11,X0_M11,X2_M11,X1_M11
2023-09-23 17:00:00,SystemResetWarning,0829.7,5.00,000.00,028.5,026.1,000.0,037.0,030.0,15.0,0003.0,0018.85,0005.32,0003.78
2023-09-23 17:01:00,SystemResetWarning,0829.8,5.00,000.00,028.5,026.4,000.0,037.0,030.0,14.9,0002.9,0020.44,0005.37,0003.76
2023-09-23 17:02:00,SystemResetWarning,0829.8,5.01,000.00,028.6,026.6,000.0,037.0,030.1,14.9,0003.0,0019.41,0005.40,0003.76
2023-09-23 17:03:00,SystemResetWarning,0829.8,4.99,000.00,028.6,026.8,000.0,037.0,030.1,15.2,0003.1,0019.70,0005.37,0003.75
2023-09-23 17:04:00,SystemResetWarning,0829.7,4.99,000.00,028.6,027.0,000.0,037.0,030.2,15.3,0003.1,0020.03,0005.43,0003.76
2023-09-23 17:05:00,SystemResetWarning,0829.7,5.01,000.00,028.6,027.1,000.0,037.0,030.2,15.4,0003.3,0020.12,0005.40,0003.75
2023-09-23 17:06:00,SystemResetWarning,0829.7,5.01,000.00,028.6,027.3,000.0,037.0,030.3,15.0,0002.9,0019.61,0005.33,0003.74
2023-09-23 17:07:00,SystemResetWarning,0829.7,5.00,000.00,028.7,027.4,000.0,037.0,030.3,14.9,0003.1,0017.38,0005.34,0003.74
2023-09-23 17:08:00,SystemResetWarning,0829.7,5.00,000.00,028.7,027.5,000.0,037.0,030.4,14.8,0002.8,0016.79,0005.36,0003.74
2023-09-23 17:09:00,SystemResetWarning,0829.7,5.00,000.00,028.7,027.6,000.0,037.0,030.4,14.8,0002.7,0017.88,0005.36,0003.73
2023-09-23 17:10:00,SystemResetWarning,0829.8,4.99,000.00,028.8,027.6,000.0,037.0,030.5,14.8,0002.9,0019.35,0005.34,0003.75
2023-09-23 17:11:00,SystemResetWarning,0829.7,5.00,000.00,028.8,027.7,000.0,037.0,030.5,14.7,0002.7,0019.15,0005.29,0003.75
2023-09-23 17:12:00,SystemResetWarning,0829.7,5.00,000.00,028.9,027.8,000.0,037.0,030.5,14.6,0002.8,0017.87,0005.28,0003.76
2023-09-23 17:13:00,SystemResetWarning,0829.7,5.00,000.00,028.9,027.8,000.0,037.1,030.6,14.5,0002.5,0017.90,0005.26,0003.76
2023-09-23 17:14:00,SystemResetWarning,0829.7,5.00,000.00,028.9,027.9,000.0,037.1,030.6,14.6,0002.6,0018.63,0005.29,0003.79
2023-09-23 17:15:00,SystemResetWarning,0829.7,4.99,000.00,028.9,026.8,000.0,037.1,030.4,14.5,0002.4,0019.17,0005.24,0003.80
2023-09-23 17:16:00,SystemResetWarning,0829.7,5.01,000.00,028.8,024.9,000.0,037.0,030.0,15.0,0002.0,0019.10,0005.30,0003.81
2023-09-23 17:17:00,SystemResetWarning,0829.6,5.01,000.00,028.7,024.6,000.0,036.9,029.9,15.4,0001.7,0019.19,0005.36,0003.83
2023-09-23 17:18:00,SystemResetWarning,0829.6,5.00,000.00,028.6,024.8,000.0,036.9,029.8,15.3,0001.3,0020.10,0005.42,0003.84
2023-09-23 17:19:00,SystemResetWarning,0829.6,5.00,000.00,028.5,025.2,000.0,036.9,029.8,15.0,0001.6,0021.35,0005.45,0003.84
2023-09-23 17:20:00,SystemResetWarning,0829.7,5.01,000.00,028.5,025.5,000.0,036.9,029.9,14.5,0001.7,0020.73,0005.47,0003.85
2023-09-23 17:21:00,SystemResetWarning,0829.6,5.00,000.00,028.5,025.9,000.0,036.9,030.0,15.2,0001.0,0019.63,0005.48,0003.85
2023-09-23 17:22:00,SystemResetWarning,0829.6,4.99,000.00,028.5,026.2,000.0,036.9,030.0,15.5,0000.5,0020.35,0005.54,0003.87
2023-09-23 17:23:00,SystemResetWarning,0829.6,4.99,000.00,028.5,026.5,000.0,036.9,030.1,15.6,0000.8,0020.73,0005.53,0003.87
2023-09-23 17:24:00,SystemResetWarning,0829.6,5.00,000.00,028.5,026.7,000.0,036.9,030.1,14.8,0000.9,0020.85,0005.47,0003.86
2023-09-23 17:25:00,SystemResetWarning,0829.6,5.01,000.00,028.5,026.9,000.0,036.9,030.2,14.5,0000.6,0020.60,0005.43,0003.82
2023-09-23 17:26:00,SystemResetWarning,0829.6,5.00,000.00,028.6,027.0,000.0,036.9,030.2,14.8,0000.4,0020.61,0005.40,0003.79
2023-09-23 17:27:00,SystemResetWarning,0829.6,5.00,000.00,028.6,027.2,000.0,036.9,030.3,14.4,0001.0,0020.61,0005.35,0003.77
2023-09-23 17:28:00,SystemResetWarning,0829.6,4.99,000.00,028.6,027.3,000.0,036.9,030.3,14.8,0001.4,0021.43,0005.33,0003.76
2023-09-23 17:29:00,SystemResetWarning,0829.6,4.99,000.00,028.6,027.4,000.0,036.9,030.3,14.2,0001.3,0021.85,0005.27,0003.75
2023-09-23 17:30:00,SystemResetWarning,0829.6,5.00,000.00,028.7,027.5,000.0,036.9,030.4,14.3,0000.6,0021.24,0005.20,0003.73
2023-09-23 17:31:00,SystemResetWarning,0829.6,5.01,000.00,028.7,027.6,000.0,036.9,030.4,12.9,0000.4,0021.51,0005.11,0003.70
2023-09-23 17:32:00,SystemResetWarning,0829.5,5.01,000.00,028.7,027.6,000.0,037.0,030.4,14.5,0000.0,0022.96,0004.99,0003.66
2023-09-23 17:33:00,SystemResetWarning,0829.4,5.01,000.00,028.8,027.7,000.0,037.0,030.5,14.5,0000.0,0021.45,0004.88,0003.63
2023-09-23 17:34:00,SystemResetWarning,0829.3,4.99,000.00,028.8,027.8,000.0,037.0,030.5,13.5,0000.0,0021.12,0004.81,0003.59
2023-09-23 17:35:00,SystemResetWarning,0829.3,4.99,000.00,028.9,027.8,000.0,037.0,030.6,13.3,0000.0,0021.23,0004.79,0003.57
2023-09-23 17:36:00,SystemResetWarning,0829.3,4.99,000.00,028.9,027.9,000.0,037.1,030.6,13.4,0000.0,0020.48,0004.79,0003.57
2023-09-23 17:37:00,SystemResetWarning,0829.4,5.00,000.00,028.9,027.9,000.0,037.1,030.7,13.1,0000.0,0019.32,0004.79,0003.56
2023-09-23 17:38:00,SystemResetWarning,0829.5,5.00,000.00,029.0,028.0,000.0,037.1,030.7,13.1,0000.0,0018.40,0004.77,0003.55
2023-09-23 17:39:00,SystemResetWarning,0829.5,5.00,000.00,029.0,028.0,000.0,037.1,030.7,13.4,0000.0,0018.25,0004.75,0003.54
2023-09-23 17:40:00,SystemResetWarning,0829.4,5.00,000.00,029.0,026.9,000.0,037.1,030.6,13.2,0000.0,0018.25,0004.72,0003.54
2023-09-23 17:41:00,SystemResetWarning,0829.3,5.00,000.00,028.9,025.1,000.0,037.1,030.1,12.3,0000.0,0018.30,0004.71,0003.53
2023-09-23 17:42:00,SystemResetWarning,0829.3,5.01,000.00,028.7,024.6,000.0,037.0,030.0,12.6,0000.0,0017.65,0004.73,0003.54
2023-09-23 17:43:00,SystemResetWarning,0829.4,5.01,000.00,028.6,024.9,000.0,037.0,029.9,12.9,0000.0,0016.16,0004.76,0003.55
2023-09-23 17:44:00,SystemResetWarning,0829.3,4.99,000.00,028.6,025.2,000.0,037.0,029.8,12.9,0000.0,0016.69,0004.79,0003.55
2023-09-23 17:45:00,SystemResetWarning,0829.4,5.00,000.00,028.5,025.6,000.0,037.0,029.9,12.2,0000.0,0016.97,0004.84,0003.57
2023-09-23 17:46:00,SystemResetWarning,0829.4,5.01,000.00,028.5,025.9,000.0,037.0,030.0,12.0,0000.1,0017.63,0004.86,0003.58
2023-09-23 17:47:00,SystemResetWarning,0829.4,5.00,000.00,028.5,026.3,000.0,037.0,030.0,12.7,0003.8,0018.48,0004.84,0003.58
2023-09-23 17:48:00,SystemResetWarning,0829.4,4.99,000.00,028.5,026.6,000.0,037.0,030.1,12.0,0003.9,0018.58,0004.85,0003.57
2023-09-23 17:49:00,SystemResetWarning,0829.3,4.99,000.00,028.6,026.8,000.0,037.0,030.1,12.2,0003.7,0018.61,0004.87,0003.57
2023-09-23 17:50:00,SystemResetWarning,0829.3,5.00,000.00,028.6,027.0,000.0,037.0,030.2,11.7,0003.6,0018.14,0004.81,0003.57
2023-09-23 17:51:00,SystemResetWarning,0829.3,5.00,000.00,028.6,027.2,000.0,037.0,030.3,11.7,0003.4,0017.46,0004.78,0003.55
2023-09-23 17:52:00,SystemResetWarning,0829.3,5.01,000.00,028.7,027.4,000.0,037.0,030.3,11.8,0003.1,0017.34,0004.75,0003.54
2023-09-23 17:53:00,SystemResetWarning,0829.3,5.00,000.00,028.7,027.5,000.0,037.0,030.4,11.9,0003.0,0018.36,0004.77,0003.54
2023-09-23 17:54:00,SystemResetWarning,0829.3,4.99,000.00,028.7,027.6,000.0,037.0,030.4,11.8,0003.3,0018.13,0004.79,0003.55
2023-09-23 17:55:00,SystemResetWarning,0829.4,5.00,000.00,028.8,027.7,000.0,037.0,030.5,11.4,0003.0,0017.24,0004.75,0003.55
2023-09-23 17:56:00,SystemResetWarning,0829.3,5.00,000.00,028.8,027.7,000.0,037.0,030.5,11.4,0002.8,0017.15,0004.69,0003.54
2023-09-23 17:57:00,SystemResetWarning,0829.2,5.00,000.00,028.8,027.8,000.0,037.0,030.6,11.6,0002.8,0016.81,0004.66,0003.54
2023-09-23 17:58:00,SystemResetWarning,0829.2,5.00,000.00,028.9,027.9,000.0,037.1,030.6,11.5,0003.3,0015.97,0004.72,0003.54
2023-09-23 17:59:00,SystemResetWarning,0829.2,5.01,000.00,028.9,027.9,000.0,037.1,030.7,11.3,0003.4,0017.00,0004.78,0003.54
